Location: Cannifist
(18.2333°N, 63.0167°W)
Time: 22:30:18
(UTC+00:00)

NOAA 11 - Pass Details

Date: 27 February 2020
Orbit: 834 x 849 km, 98.4° (Epoch: 05 April)

Event Time Altitude Azimuth Distance (km) Brightness Sun altitude
Rises 22:58:07 0° 165° (SSE) 3,385 7.2 -10.4°
Reaches altitude 10° 23:00:29 10° 164° (SSE) 2,449 6.5 -11.0°
Maximum altitude 23:05:55 82° 78° (ENE) 849 4.1 -12.3°
Drops below altitude 10° 23:11:21 10° 350° (N) 2,445 6.7 -13.6°
Sets 23:13:42 0° 350° (N) 3,378 7.4 -14.1°
